Regional Weather Roundup
Issued by NWS

Home | Current Version | Previous Version | Graphics & Text | Print | Product List | Glossary On
Versions: 1 2 3 4 5 6 7 8 9 10 11 12 13 14 15 16 17 18 19 20 21 22 23 24 25 26 27 28 29 30 31 32 33 34 35 36 37 38 39 40 41 42 43 44 45 46 47 48 49 50
170
ASUS43 KLSX 270710
RWRMO

WEATHER SUMMARY FOR MISSOURI
NATIONAL WEATHER SERVICE SPRINGFIELD MO
200 AM CDT SAT MAY 27 2017

NOTE: "FAIR" INDICATES FEW OR NO CLOUDS BELOW 12,000 FEET WITH NO
       SIGNIFICANT WEATHER AND/OR OBSTRUCTIONS TO VISIBILITY.
       CURRENT SKY AND/OR WEATHER CONDITIONS ARE NOT AVAILABLE FOR
       CHILLICOTHE AND FARMINGTON.

MOZ001>031-035>038-043-044-053-054-270800-
...NORTHERN AND WESTERN MISSOURI...

CITY           SKY/WX    TMP DP  RH WIND       PRES   REMARKS
KANSAS CTY INT CLEAR     70  64  81 SE8       29.84S
KANSAS C DTWN  CLEAR     69  64  84 NE5       29.82F
LEE`S SUMMIT   CLEAR     68  65  90 E6        29.84F
ST JOSEPH      CLEAR     65  64  97 N3        29.84R
CHILLICOTHE      N/A     64  63  96 CALM      29.86S
KIRKSVILLE     CLEAR     62  61  96 E3        29.87S

$$
MOZ066>068-077>081-088>096-101>105-270800-
...SOUTHWEST MISSOURI...

CITY           SKY/WX    TMP DP  RH WIND       PRES   REMARKS
SPRINGFIELD    CLOUDY    72  70  93 SE5       29.82F
JOPLIN         MOCLDY    73  69  87 E3        29.81F
BRANSON        TSTM      64  64 100 CALM      29.86F

$$
MOZ032>034-039>042-045>050-055>058-069>072-270800-
...CENTRAL MISSOURI...

CITY           SKY/WX    TMP DP  RH WIND       PRES   REMARKS
COLUMBIA       CLOUDY    69  67  93 E5        29.86S
JEFFERSON CITY CLEAR     67  64  90 E3        29.85S
ROLLA          CLEAR     65  65 100 CALM      29.85F FOG
SEDALIA        CLEAR     66  66 100 NE3       29.86S
WHITEMAN AFB   CLEAR     63 N/A N/A NE6       29.83S
WARRENSBURG    CLEAR     64  63  94 E3        29.84S
OSAGE BEACH    CLEAR     65  64  97 CALM      29.85F

$$
MOZ051-052-059>065-270800-
...EAST CENTRAL MISSOURI...

CITY           SKY/WX    TMP DP  RH WIND       PRES   REMARKS
ST LOUIS INTL  MOCLDY    74  68  81 W3        29.86R
SPIRIT OF STL  MOCLDY    71  70  96 W5        29.85R
ST CHARLES     CLOUDY    72  67  84 W3        29.85R

$$
MOZ072>076-082>087-097>100-106>115-270800-
...SOUTH CENTRAL AND SOUTHEAST MISSOURI...

CITY           SKY/WX    TMP DP  RH WIND       PRES   REMARKS
CAPE GIRARDEAU CLOUDY    71  67  87 CALM      29.85F
FARMINGTON     PTCLDY    68  66  93 SE3       29.87F
POPLAR BLUFF   CLOUDY    69  69 100 CALM      29.84F FOG
WEST PLAINS    CLOUDY    71  69  93 E3        29.87F

$$




USA.gov is the U.S. government's official web portal to all federal, state and local government web resources and services.